Location: Karlsruhe
(49.0131°N, 8.3874°E)
Time: 08:26:33
(UTC+01:00)

ISS - Pass Details

Date: 08 January 2018
Orbit: 402 x 407 km, 51.6° (Epoch: 24 January)

Event Time Altitude Azimuth Distance (km) Brightness Sun altitude
Exits shadow 06:38:16 38° 307° (NW) 645 -3.3 -15.8°
Maximum altitude 06:39:19 62° 12° (NNE) 462 -3.7 -15.6°
Drops below altitude 10° 06:42:35 10° 94° (E) 1,470 0.3 -15.1°
Sets 06:44:41 0° 98° (E) 2,330 1.8 -14.8°
